Weather History for KEWN - December, 2013

Change the Weather History Date:

Tuesday, December 24, 2013

  Actual Average Record
Temperature  
Mean Temperature 48 °F 45 °F  
Max Temperature 58 °F 55 °F 76 °F (1964)
Min Temperature 38 °F 34 °F 9 °F (1983)
Degree Days  
Heating Degree Days 17 20  
Month to date heating degree days 300 423  
Since 1 July heating degree days 723 850  
Cooling Degree Days 0 0  
Month to date cooling degree days 27 0  
Year to date cooling degree days 2033 1900  
Moisture  
Dew Point 41 °F    
Average Humidity 73    
Maximum Humidity 92    
Minimum Humidity 54    
Precipitation  
Precipitation 0.18 in 0.12 in 2.87 in (1978)
Month to date precipitation 1.88 2.65  
Year to date precipitation 42.16 52.00  
Snow  
Snow 0.00 in - - ()
Month to date snowfall 0.0  
Since 1 July snowfall T  
Snow Depth 0.00 in    
Sea Level Pressure  
Sea Level Pressure 30.18 in    
Wind  
Wind Speed 10 mph (North)    
Max Wind Speed 21 mph    
Max Gust Speed 28 mph    
Visibility 9 miles    
Events Rain    
T = Trace of Precipitation, MM = Missing Value Source: NWS Daily Summary

Daily Weather History Graph

Daily Weather History Graph

Search for Another Location

Airport or City:

Trip Planner

Search our weather history database for the weather conditions in past years. The results will help you decide how hot, cold, wet, or windy it might be!

Date:

Astronomy

Dec. 24, 2013 Rise Set
Actual Time 7:13 AM EST 5:01 PM EST
Civil Twilight 6:45 AM EST 5:30 PM EST
Nautical Twilight 6:14 AM EST 6:01 PM EST
Astronomical Twilight 5:43 AM EST 6:32 PM EST
Moon 11:52 PM EST (12/24) 11:21 AM EST (12/24)
Length of Visible Light 10h 44m
Length of Day
9h 48m
Waning Gibbous, 59% of the Moon is Illuminated
Dec 24
Waning Gibbous
Dec 25
Last Quarter
Jan 1
New
Jan 7
First Quarter
Jan 15
Full

Hourly Weather History & Observations

Time (EST) Temp. Windchill Dew Point Humidity Pressure Visibility Wind Dir Wind Speed Gust Speed Precip Events Conditions
12:21 AM 55.4 °F - 51.8 °F 88% 30.10 in 8.0 mi NE 12.7 mph - 0.02 in Rain Light Rain
12:50 AM 55.4 °F - 53.6 °F 94% 30.10 in 6.0 mi NNE 10.4 mph - 0.03 in Rain Light Rain
12:54 AM 55.0 °F - 52.0 °F 89% 30.11 in 7.0 mi North 10.4 mph - 0.03 in Rain Light Rain
1:03 AM 55.4 °F - 51.8 °F 88% 30.10 in 10.0 mi NNE 11.5 mph - 0.00 in Rain Light Rain
1:18 AM 53.6 °F - 51.8 °F 94% 30.08 in 8.0 mi NE 13.8 mph - 0.01 in Rain Light Rain
1:30 AM 53.6 °F - 51.8 °F 94% 30.08 in 10.0 mi NE 10.4 mph - 0.01 in Rain Light Rain
1:40 AM 53.6 °F - 51.8 °F 94% 30.09 in 10.0 mi NE 11.5 mph - 0.01 in Rain Light Rain
1:54 AM 53.1 °F - 50.0 °F 89% 30.09 in 10.0 mi NNE 10.4 mph - 0.01 in Rain Light Rain
2:23 AM 51.8 °F - 48.2 °F 88% 30.11 in 6.0 mi North 15.0 mph - 0.01 in Rain Light Rain
2:42 AM 51.8 °F - 48.2 °F 88% 30.09 in 4.0 mi NNE 12.7 mph - 0.02 in Rain Light Rain
2:52 AM 51.8 °F - 48.2 °F 88% 30.09 in 5.0 mi North 9.2 mph - 0.02 in Rain Light Rain
2:54 AM 51.1 °F - 48.9 °F 92% 30.09 in 5.0 mi NNE 10.4 mph - 0.02 in Rain Light Rain
3:01 AM 51.8 °F - 48.2 °F 88% 30.10 in 5.0 mi NE 13.8 mph 21.9 mph 0.01 in Rain Light Rain
3:24 AM 48.2 °F - 46.4 °F 93% 30.10 in 7.0 mi NNE 15.0 mph 24.2 mph 0.02 in Rain Rain
3:52 AM 48.2 °F - 44.6 °F 87% 30.09 in 5.0 mi NNE 12.7 mph - 0.02 in Rain Light Rain
3:54 AM 48.0 °F - 45.0 °F 89% 30.09 in 5.0 mi NNE 10.4 mph - 0.02 in Rain Light Rain
4:28 AM 46.4 °F 40.1 °F 44.6 °F 93% 30.12 in 10.0 mi North 15.0 mph 21.9 mph 0.01 in Rain Light Rain
4:54 AM 46.9 °F - 43.0 °F 86% 30.09 in 10.0 mi North 16.1 mph 23.0 mph 0.02 in   Overcast
5:01 AM 46.4 °F 39.8 °F 42.8 °F 87% 30.08 in 10.0 mi North 16.1 mph - N/A   Overcast
5:11 AM 46.4 °F 40.1 °F 42.8 °F 87% 30.09 in 10.0 mi North 15.0 mph - N/A   Overcast
5:52 AM 46.4 °F 41.1 °F 42.8 °F 87% 30.10 in 7.0 mi NNE 11.5 mph - 0.02 in Rain Light Rain
5:54 AM 46.0 °F 40.6 °F 43.0 °F 89% 30.11 in 8.0 mi North 11.5 mph - 0.02 in Rain Light Rain
6:54 AM 45.0 °F 39.3 °F 42.1 °F 90% 30.15 in 5.0 mi NNE 11.5 mph - 0.07 in Rain Light Rain
7:36 AM 44.6 °F 38.1 °F 39.2 °F 81% 30.18 in 10.0 mi North 13.8 mph - 0.00 in   Overcast
7:54 AM 44.1 °F 39.0 °F 39.9 °F 85% 30.19 in 10.0 mi North 9.2 mph - 0.00 in   Overcast
8:10 AM 42.8 °F 35.4 °F 39.2 °F 87% 30.19 in 10.0 mi NNW 15.0 mph 18.4 mph N/A   Overcast
8:26 AM 42.8 °F 36.6 °F 39.2 °F 87% 30.19 in 10.0 mi North 11.5 mph - N/A   Overcast
8:43 AM 42.8 °F 36.2 °F 37.4 °F 81% 30.20 in 10.0 mi North 12.7 mph 18.4 mph N/A   Overcast
8:54 AM 43.0 °F 36.8 °F 37.9 °F 82% 30.20 in 10.0 mi North 11.5 mph - N/A   Overcast
9:07 AM 42.8 °F 38.0 °F 37.4 °F 81% 30.21 in 10.0 mi North 8.1 mph 16.1 mph N/A   Overcast
9:54 AM 44.1 °F 37.7 °F 37.9 °F 79% 30.22 in 10.0 mi NNW 12.7 mph - N/A   Overcast
10:02 AM 44.6 °F 38.1 °F 37.4 °F 76% 30.22 in 10.0 mi North 13.8 mph - N/A   Mostly Cloudy
10:36 AM 46.4 °F 41.9 °F 37.4 °F 71% 30.23 in 10.0 mi NNW 9.2 mph - N/A   Mostly Cloudy
10:54 AM 44.1 °F 37.7 °F 36.0 °F 73% 30.22 in 10.0 mi North 12.7 mph - N/A   Overcast
11:54 AM 46.0 °F 40.6 °F 36.0 °F 68% 30.21 in 10.0 mi NNW 11.5 mph - N/A   Overcast
12:36 PM 46.4 °F 41.9 °F 37.4 °F 71% 30.20 in 10.0 mi NW 9.2 mph - N/A   Clear
12:54 PM 46.9 °F - 36.0 °F 66% 30.21 in 10.0 mi NW 10.4 mph - N/A   Clear
1:54 PM 48.9 °F - 35.1 °F 59% 30.21 in 10.0 mi NNW 9.2 mph - N/A   Clear
2:54 PM 48.9 °F - 34.0 °F 56% 30.22 in 10.0 mi North 11.5 mph - N/A   Clear
3:54 PM 48.0 °F - 32.0 °F 54% 30.25 in 10.0 mi NNW 12.7 mph - N/A   Clear
4:54 PM 45.0 °F 40.6 °F 30.0 °F 56% 30.27 in 10.0 mi North 8.1 mph - N/A   Clear
5:54 PM 43.0 °F 38.8 °F 30.9 °F 62% 30.31 in 10.0 mi NNW 6.9 mph - N/A   Clear
6:54 PM 43.0 °F 39.5 °F 30.9 °F 62% 30.34 in 10.0 mi NNW 5.8 mph - N/A   Clear
7:54 PM 42.1 °F 38.4 °F 30.9 °F 65% 30.37 in 10.0 mi NNW 5.8 mph - N/A   Clear
8:54 PM 39.0 °F 36.8 °F 30.0 °F 70% 30.38 in 9.0 mi North 3.5 mph - N/A   Clear
9:54 PM 39.9 °F 34.5 °F 28.0 °F 63% 30.40 in 10.0 mi North 8.1 mph - N/A   Clear
10:54 PM 39.0 °F 33.4 °F 26.1 °F 60% 30.42 in 10.0 mi North 8.1 mph 16.1 mph N/A   Clear
11:54 PM 37.9 °F 30.9 °F 24.1 °F 57% 30.43 in 10.0 mi North 10.4 mph - N/A   Clear